[[[{"header":{"parameterUnit":"kt","parameterCategory":2,"dx":1,"dy":1,"la1":30.253999710083008,"la2":30.299108505249023,"lo1":-89.0895004272461,"lo2":-89.04439544677734,"nx":28,"ny":28,"refTime":"2022-09-29T21:00:00:Z","depth":0,"parameterNumber":1,"parameterNumberName":"U-component_of_WINDS"},"data":[-3.3248,-3.334,-3.3344,-3.3449,-3.347,-3.3542,-3.3569,-3.3603,-3.3631,-3.3715,-3.3764,-3.3775,-3.3802,-3.386,-3.3911,-3.3915,-3.3938,-3.3967,-3.3967,-3.3832,-3.3814,-3.3796,-3.3777,-3.3971,-3.3972,-3.4108,-3.4109,-3.411,-3.3147,-3.3169,-3.3226,-3.3284,-3.3333,-3.3306,-3.3348,-3.3391,-3.3455,-3.3489,-3.3538,-3.3612,-3.367,-3.3688,-3.3744,-3.3784,-3.3776,-3.38,-3.3799,-3.3804,-3.3659,-3.3638,-3.3806,-3.3806,-3.3806,-3.3806,-3.3806,-3.3806,-3.2965,-3.302,-3.3058,-3.312,-3.3149,-3.3187,-3.3239,-3.3253,-3.3308,-3.3369,-3.336,-3.3433,-3.3467,-3.3535,-3.3559,-3.3614,-3.3588,-3.3615,-3.3623,-3.3631,-3.3641,-3.3448,-3.3623,-3.3622,-3.3622,-3.3621,-3.3621,0,-3.2835,-3.2834,-3.289,-3.2946,-3.2991,-3.3035,-3.3075,-3.3106,-3.3105,-3.315,-3.3215,-3.3253,-3.3326,-3.3387,-3.3439,-3.3458,-3.3437,-3.3433,-3.3453,-3.3461,-3.3461,-3.3465,-3.3232,-3.3429,-3.3428,-3.3426,-3.3425,-3.3425,-3.2655,-3.2717,-3.2759,-3.2797,-3.282,-3.2881,-3.2918,-3.2913,-3.2952,-3.2999,-3.3047,-3.3107,-3.3156,-3.3257,-3.3272,-3.3326,-3.3317,-3.3392,-3.3325,-3.3329,-3.3322,-3.332,-3.3327,-3.3407,-3.341,-3.3411,-3.3413,0,-3.2553,-3.256,-3.2659,-3.2693,-3.2703,-3.2769,-3.2798,-3.2851,-3.2858,-3.2932,-3.2949,-3.2961,-3.3024,-3.3026,-3.3097,-3.3097,-3.3203,-3.319,-3.3192,-3.3191,-3.3261,-3.3256,-3.3483,-3.3513,-3.3308,-3.331,-3.3311,0,-3.2404,-3.2486,-3.2492,-3.2549,-3.2639,-3.2633,-3.2722,-3.2738,-3.2769,-3.2827,-3.2802,-3.2857,-3.2851,-3.2906,-3.2905,-3.2991,-3.3004,-3.301,-3.301,-3.3015,-3.3015,-3.3039,-3.3031,-3.3002,-3.3001,-3.3,-3.2999,0,-3.2249,-3.2347,-3.2439,-3.2463,-3.2508,-3.2551,-3.2571,-3.2606,-3.2642,-3.2688,-3.2712,-3.2765,-3.2796,-3.2837,-3.2836,-3.2791,-3.2941,-3.2878,-3.2947,-3.2948,-3.2985,-3.2983,-3.318,-3.2997,-3.2997,-3.2997,-3.2996,0,-3.2132,-3.2181,-3.2312,-3.235,-3.2376,-3.2435,-3.249,-3.2541,-3.258,-3.2584,-3.262,-3.2605,-3.268,-3.2618,-3.272,-3.2662,-3.2693,-3.2704,-3.2709,-3.272,-3.2652,-3.2768,-3.2951,-3.2973,-3.2724,-3.2722,-3.272,0,-3.1953,-3.2087,-3.2085,-3.2209,-3.2272,-3.2242,-3.2307,-3.2343,-3.2354,-3.2408,-3.2418,-3.248,-3.2434,-3.2454,-3.2503,-3.2518,-3.2594,-3.2507,-3.2586,-3.2589,-3.2581,-3.2749,-3.2778,-3.291,-3.2691,-3.2694,-3.2696,0,-3.1817,-3.1873,-3.1896,-3.1924,-3.1971,-3.2023,-3.2097,-3.2158,-3.2194,-3.2235,-3.2299,-3.2382,-3.2352,-3.2385,-3.2379,-3.2431,-3.2542,-3.2392,-3.2393,-3.2422,-3.2675,-3.2703,-3.2725,-3.2526,-3.253,-3.2532,-3.2673,0,-3.1643,-3.1712,-3.1772,-3.1834,-3.1874,-3.1951,-3.1958,-3.1999,-3.199,-3.2001,-3.2092,-3.2122,-3.2183,-3.2207,-3.2199,-3.2316,-3.2298,-3.2265,-3.2209,-3.2318,-3.2364,-3.2383,-3.2139,-3.2137,-3.2136,-3.2135,0,0,-3.1473,-3.1571,-3.1567,-3.1641,-3.1676,-3.1646,-3.1729,-3.1758,-3.1819,-3.1843,-3.1811,-3.1935,-3.1961,-3.2072,-3.2106,-3.2129,-3.2151,-3.2114,-3.2265,-3.228,-3.2293,-3.2343,-3.2362,-3.2132,-3.2132,-3.2131,-3.2131,0,-3.1413,-3.1442,-3.1524,-3.1555,-3.1601,-3.1609,-3.1628,-3.1669,-3.168,-3.177,-3.1744,-3.1799,-3.1899,-3.1931,-3.196,-3.2099,-3.2078,-3.2116,-3.2191,-3.2251,-3.2267,-3.2282,-3.2334,-3.2352,-3.2127,-3.2128,-3.2128,0,-3.1282,-3.1313,-3.1353,-3.1431,-3.1461,-3.1526,-3.1468,-3.1539,-3.1587,-3.1551,-3.1641,-3.1658,-3.17,-3.1803,-3.1849,-3.1822,-3.2011,-3.1951,-3.196,-3.1967,-3.2025,-3.2045,-3.2062,-3.1833,-3.1832,-3.1831,0,0,-3.123,-3.1293,-3.1325,-3.1419,-3.1439,-3.1454,-3.1488,-3.1485,-3.1524,-3.1541,-3.1564,-3.1602,-3.166,-3.1698,-3.1753,-3.1864,-3.1874,-3.1915,-3.1929,-3.194,-3.1953,-3.2014,-3.2033,-3.1827,-3.1827,-3.1827,0,0,-3.1205,-3.1247,-3.1232,-3.1341,-3.138,-3.1418,-3.1475,-3.1457,-3.1507,-3.15,-3.1495,-3.1505,-3.1601,-3.1619,-3.1566,-3.1733,-3.1677,-3.169,-3.1719,-3.1737,-3.175,-3.1746,-3.1512,0,0,0,0,0,-3.1148,-3.1241,-3.1227,-3.1247,-3.1345,-3.1426,-3.1438,-3.1438,-3.1398,-3.1443,-3.1459,-3.1434,-3.159,-3.1542,-3.1561,-3.1622,-3.1776,-3.1785,-3.1794,-3.1858,-3.1876,-3.1891,0,0,0,0,0,0,-3.1156,-3.118,-3.1225,-3.1267,-3.1289,-3.1422,-3.1356,-3.1358,-3.1393,-3.1387,-3.1431,-3.1435,-3.1435,-3.1533,-3.155,-3.1608,-3.1506,-3.178,-3.1787,-3.1794,-3.1864,-3.1879,-3.1892,0,0,0,0,0,-3.1162,-3.1182,-3.134,-3.1265,-3.1285,-3.1306,-3.1352,-3.1354,-3.1381,-3.1407,-3.141,-3.1378,-3.1437,-3.1451,-3.1543,-3.16,-3.1495,-3.1501,-3.1785,-3.1791,-3.1796,-3.1871,0,0,0,0,0,0,-3.1167,-3.1183,-3.1343,-3.1349,-3.1231,-3.1298,-3.1309,-3.135,-3.1398,-3.1402,-3.1353,-3.1348,-3.1439,-3.145,-3.1461,-3.1598,-3.1485,-3.1492,-3.1496,-3.1789,-3.1794,-3.1798,0,0,0,0,0,0,-3.1172,-3.1188,-3.1346,-3.1303,-3.1304,-3.1292,-3.1301,-3.1379,-3.1399,-3.1341,-3.1338,-3.135,-3.1422,-3.1449,-3.1458,-3.1579,-3.1478,-3.1484,-3.1488,-3.1491,-3.1793,-3.1797,0,0,0,0,0,0,-3.1179,-3.1192,-3.1302,-3.1302,-3.1303,-3.1367,-3.136,-3.146,-3.1363,-3.1339,-3.1355,-3.1351,-3.1422,-3.1431,-3.1456,-3.1573,-3.1577,-3.1478,-3.1482,-3.1485,-3.1487,0,0,0,0,0,0,0,-3.1184,-3.1096,-3.131,-3.1302,-3.1302,-3.1402,-3.1404,-3.1405,-3.1363,-3.1359,-3.1356,-3.1352,-3.1443,-3.145,-3.1456,-3.1569,0,0,-3.1477,-3.148,0,0,0,0,0,0,0,0,-3.109,-3.1094,-3.131,-3.1311,-3.1312,-3.1403,-3.1404,-3.1405,-3.1362,-3.1359,-3.1356,-3.1354,-3.1445,-3.145,-3.1456,0,0,0,0,0,0,0,0,0,0,0,0,0,0,0,-3.131,-3.1311,0,-3.1403,-3.1404,-3.1405,-3.1362,-3.1359,-3.1357,-3.1355,-3.1446,-3.1451,-3.1455,0,0,0,0,0,0,0,0,0,0,0,0,0,0,0,0,0,0,0,0,0,0,0,0,0,0,0,0,0,0,0,0,0,0,0,0,0,0,0,0,0,0,0,0,0,0,0,0,0,0,0,0,0,0,0,0,0,0,0,0,0,0,0,0,0,0,0,0,0]}],[{"header":{"parameterUnit":"kt","parameterCategory":2,"dx":1,"dy":1,"la1":30.253999710083008,"la2":30.299108505249023,"lo1":-89.0895004272461,"lo2":-89.04439544677734,"nx":28,"ny":28,"refTime":"2022-09-29T21:00:00:Z","depth":0,"parameterNumber":2,"parameterNumberName":"V-component_of_WINDS"},"data":[-11.4961,-11.5067,-11.5056,-11.5171,-11.518,-11.5255,-11.5278,-11.5305,-11.5323,-11.541,-11.5456,-11.5453,-11.5464,-11.5514,-11.5562,-11.5559,-11.558,-11.5627,-11.5614,-11.5419,-11.5391,-11.5364,-11.5339,-11.5632,-11.5632,-11.5818,-11.582,-11.5821,-11.482,-11.4831,-11.4888,-11.4936,-11.4984,-11.4933,-11.4965,-11.5008,-11.5076,-11.5099,-11.5144,-11.5218,-11.5273,-11.5267,-11.5317,-11.5364,-11.5341,-11.5378,-11.5374,-11.5376,-11.5167,-11.514,-11.5396,-11.5396,-11.5396,-11.5396,-11.5396,-11.5396,-11.4559,-11.4623,-11.4645,-11.4707,-11.4727,-11.4759,-11.4816,-11.4811,-11.4865,-11.4919,-11.4891,-11.4966,-11.4985,-11.5037,-11.5051,-11.5107,-11.5062,-11.5098,-11.5107,-11.5117,-11.5129,-11.4862,-11.5115,-11.5114,-11.5113,-11.5113,-11.5112,0,-11.4364,-11.435,-11.4404,-11.4455,-11.4499,-11.4536,-11.4568,-11.4603,-11.4565,-11.4611,-11.4675,-11.471,-11.4777,-11.4834,-11.4877,-11.4883,-11.483,-11.4823,-11.4848,-11.4862,-11.487,-11.4866,-11.4526,-11.4815,-11.4813,-11.4811,-11.481,-11.4808,-11.4099,-11.4175,-11.4191,-11.4231,-11.4245,-11.4309,-11.4344,-11.4305,-11.4343,-11.4374,-11.4431,-11.4488,-11.4532,-11.4635,-11.4624,-11.4673,-11.4647,-11.476,-11.4654,-11.4666,-11.4648,-11.4644,-11.4651,-11.4781,-11.4784,-11.4787,-11.479,0,-11.395,-11.393,-11.4043,-11.4051,-11.4055,-11.4136,-11.4141,-11.4202,-11.4189,-11.427,-11.4286,-11.4266,-11.4328,-11.4299,-11.4363,-11.4346,-11.4475,-11.4449,-11.4469,-11.4462,-11.4559,-11.455,-11.488,-11.4921,-11.4617,-11.462,-11.4623,0,-11.3716,-11.3817,-11.378,-11.3847,-11.3957,-11.3915,-11.4024,-11.4024,-11.4039,-11.4103,-11.4039,-11.41,-11.4053,-11.4108,-11.4083,-11.4183,-11.4195,-11.4187,-11.4179,-11.4192,-11.4194,-11.421,-11.4195,-11.4158,-11.4156,-11.4154,-11.4153,0,-11.3485,-11.3584,-11.3692,-11.3711,-11.3728,-11.3779,-11.3788,-11.3804,-11.3838,-11.3877,-11.3898,-11.3945,-11.3971,-11.4008,-11.3974,-11.3904,-11.4096,-11.3992,-11.4088,-11.4089,-11.4131,-11.4129,-11.4429,-11.4151,-11.4151,-11.415,-11.4149,0,-11.3292,-11.3335,-11.3496,-11.3508,-11.3535,-11.3606,-11.3651,-11.3705,-11.3726,-11.3715,-11.3745,-11.3698,-11.3784,-11.3682,-11.3799,-11.3717,-11.3745,-11.3745,-11.3752,-11.3756,-11.3644,-11.3817,-11.4107,-11.4136,-11.3762,-11.3759,-11.3756,0,-11.3034,-11.319,-11.3155,-11.3308,-11.3376,-11.3301,-11.3378,-11.3399,-11.3391,-11.3445,-11.3434,-11.3496,-11.3414,-11.3429,-11.3491,-11.3481,-11.3588,-11.3466,-11.3542,-11.3545,-11.3539,-11.3805,-11.3856,-11.4047,-11.3715,-11.3719,-11.3722,0,-11.2831,-11.2852,-11.2882,-11.2901,-11.2924,-11.298,-11.3069,-11.3121,-11.316,-11.319,-11.3262,-11.3348,-11.329,-11.3315,-11.3281,-11.3347,-11.3515,-11.3275,-11.3274,-11.3319,-11.3691,-11.3738,-11.3771,-11.3477,-11.3482,-11.3486,-11.3689,0,-11.2542,-11.2618,-11.2697,-11.2742,-11.2781,-11.2874,-11.2845,-11.2889,-11.2853,-11.2841,-11.2947,-11.2955,-11.3006,-11.3034,-11.3,-11.316,-11.3128,-11.3065,-11.2963,-11.3139,-11.3205,-11.3232,-11.2868,-11.2864,-11.2862,-11.2859,0,0,-11.23,-11.2407,-11.2365,-11.2451,-11.2481,-11.2401,-11.2503,-11.2522,-11.2563,-11.2585,-11.2528,-11.265,-11.2659,-11.2789,-11.2842,-11.2863,-11.2888,-11.2827,-11.3056,-11.3078,-11.3098,-11.3169,-11.3198,-11.2855,-11.2854,-11.2853,-11.2852,0,-11.2188,-11.2203,-11.2307,-11.2325,-11.2352,-11.2334,-11.2359,-11.237,-11.2367,-11.247,-11.24,-11.2459,-11.2558,-11.2576,-11.2598,-11.2811,-11.2754,-11.2829,-11.2955,-11.303,-11.3055,-11.3078,-11.3153,-11.3181,-11.2845,-11.2846,-11.2846,0,-11.1982,-11.1992,-11.2039,-11.2104,-11.212,-11.2191,-11.2078,-11.2158,-11.2209,-11.2114,-11.2217,-11.2218,-11.2239,-11.2367,-11.2423,-11.2372,-11.2634,-11.2545,-11.2561,-11.2566,-11.2637,-11.2668,-11.2695,-11.2333,-11.2332,-11.233,0,0,-11.189,-11.1959,-11.1956,-11.2078,-11.2093,-11.2069,-11.2103,-11.2071,-11.2094,-11.2103,-11.2101,-11.2124,-11.218,-11.2218,-11.2269,-11.2414,-11.2414,-11.2484,-11.2508,-11.2528,-11.2544,-11.262,-11.265,-11.2324,-11.2324,-11.2324,0,0,-11.1844,-11.1846,-11.1807,-11.1945,-11.197,-11.1973,-11.2047,-11.1998,-11.2042,-11.2027,-11.1974,-11.1978,-11.2096,-11.2098,-11.2019,-11.2232,-11.2132,-11.215,-11.2226,-11.2256,-11.228,-11.2276,-11.1902,0,0,0,0,0,-11.1715,-11.1846,-11.181,-11.1829,-11.191,-11.1993,-11.2003,-11.1963,-11.1894,-11.1954,-11.1945,-11.1881,-11.2045,-11.1974,-11.1992,-11.208,-11.2244,-11.2258,-11.2272,-11.2404,-11.2435,-11.2462,0,0,0,0,0,0,-11.1722,-11.1745,-11.1806,-11.1816,-11.1833,-11.1988,-11.1861,-11.1854,-11.1886,-11.1873,-11.1885,-11.1881,-11.1847,-11.1961,-11.1978,-11.2063,-11.1896,-11.225,-11.2262,-11.2273,-11.2414,-11.244,-11.2463,0,0,0,0,0,-11.1727,-11.1746,-11.1887,-11.1813,-11.1829,-11.1808,-11.1856,-11.1849,-11.1873,-11.1859,-11.1853,-11.184,-11.1851,-11.1862,-11.1971,-11.2056,-11.1884,-11.1891,-11.2257,-11.2267,-11.2275,-11.2427,0,0,0,0,0,0,-11.1731,-11.1739,-11.1889,-11.1892,-11.1761,-11.1798,-11.1803,-11.1845,-11.1855,-11.1852,-11.1811,-11.18,-11.1855,-11.1863,-11.1872,-11.2057,-11.1875,-11.1881,-11.1885,-11.2265,-11.2272,-11.2279,0,0,0,0,0,0,-11.1728,-11.1742,-11.189,-11.1827,-11.1822,-11.179,-11.1794,-11.188,-11.1856,-11.1807,-11.1798,-11.1806,-11.184,-11.1865,-11.1871,-11.2007,-11.1867,-11.1873,-11.1878,-11.188,-11.2271,-11.2277,0,0,0,0,0,0,-11.1733,-11.1745,-11.1826,-11.1822,-11.1818,-11.185,-11.1864,-11.1949,-11.1805,-11.1807,-11.1791,-11.1784,-11.1844,-11.1849,-11.1871,-11.2004,-11.2006,-11.1867,-11.1872,-11.1875,-11.1877,0,0,0,0,0,0,0,-11.1738,-11.1669,-11.1871,-11.1818,-11.1814,-11.1921,-11.1922,-11.1922,-11.1803,-11.1798,-11.1792,-11.1787,-11.1831,-11.1838,-11.1845,-11.2002,0,0,-11.1867,-11.187,0,0,0,0,0,0,0,0,-11.1663,-11.1668,-11.1871,-11.1872,-11.1872,-11.1921,-11.1922,-11.1922,-11.1802,-11.1798,-11.1793,-11.1789,-11.1833,-11.1839,-11.1844,0,0,0,0,0,0,0,0,0,0,0,0,0,0,0,-11.1871,-11.1872,0,-11.1921,-11.1922,-11.1922,-11.1802,-11.1798,-11.1794,-11.1791,-11.1835,-11.1839,-11.1844,0,0,0,0,0,0,0,0,0,0,0,0,0,0,0,0,0,0,0,0,0,0,0,0,0,0,0,0,0,0,0,0,0,0,0,0,0,0,0,0,0,0,0,0,0,0,0,0,0,0,0,0,0,0,0,0,0,0,0,0,0,0,0,0,0,0,0,0,0]}]]]